Weather Roundup
Issued by NWS Chicago, IL

Home | Current Version | Previous Version | Text Only | Print | Product List | Glossary Off
Versions: 1 2 3 4 5 6 7 8 9 10 11 12 13 14 15 16 17 18 19 20 21 22 23 24 25 26 27 28 29 30 31 32 33 34 35 36 37 38 39 40 41 42 43 44 45 46 47 48 49 50

000
NZUS59 KLOT 061308
HRRLOT

CHICAGO AREA WEATHER ROUNDUP
NATIONAL WEATHER SERVICE CHICAGO/ROMEOVILLE IL
800 AM CDT FRI MAY 06 2016

NOTE: "FAIR" INDICATES FEW OR NO CLOUDS BELOW 12,000 FEET WITH NO
SIGNIFICANT WEATHER AND/OR OBSTRUCTIONS TO VISIBILITY.

* THESE STATIONS ARE NOT UNDER NWS QUALITY CONTROL. THEY ALSO MAY NOT
  REPORT WEATHER SUCH AS PRECIPITATION OR FOG.

ILZ005-006-012>014-019>023-061400-
NORTHEAST ILLINOIS

CITY           SKY/WX    TMP DP  RH WIND       PRES   REMARKS
OHARE          CLOUDY    55  42  61 W7        29.99S
MIDWAY         CLOUDY    57  43  59 W8        30.00R
AURORA         CLOUDY    51  46  83 CALM      30.00F
LANSING*       PTSUNNY   50  46  84 CALM      30.01S
JOLIET*        CLOUDY    52  47  84 CALM      30.01F
WAUKEGAN       PTSUNNY   56  43  61 VRB3      29.97S
DUPAGE AIRPORT CLOUDY    53  44  71 SW3       29.99S
WHEELING       CLOUDY    55  43  63 CALM      30.00R
KANKAKEE*      SUNNY     56  42  58 W7        30.02F
MORRIS*        CLOUDY    53  44  73 CALM      30.00S
LEWIS AIRPORT* CLOUDY    51  46  80 CALM      30.01S
$$

WIZ051-052-058>065-066-070>072-061400-
SOUTHEAST WISCONSIN

CITY           SKY/WX    TMP DP  RH WIND       PRES   REMARKS
MILWAUKEE      PTSUNNY   59  37  44 W9        29.96S
KENOSHA*       CLOUDY    55  43  63 W8        29.97S
RACINE*        PTSUNNY   57  40  52 W6        29.98R
BURLINGTON     SUNNY     58  40  51 SW8       29.98R
WAUKESHA       MOSUNNY   55  37  50 SW6       29.97S
WEST BEND      MOSUNNY   61  37  41 SW8       29.94F
$$

INZ001>003-010>013-019-020-061400-
NORTHWEST INDIANA

CITY           SKY/WX    TMP DP  RH WIND       PRES   REMARKS
GARY*          MOSUNNY   54  48  82 CALM      30.01S
MICHIGAN CITY* NOT AVBL
RENSSELAER*    NOT AVBL
VALPARAISO     SUNNY     52  42  69 W5        30.02R
$$

LMZ740>746-061400-
SOUTHERN LAKE MICHIGAN

STATION/POSITION TIME  SKY/WX   TEMP WIND        PRES    VSBY
                                AIR  DIR/SP/G
                 (UTC)          (F)  (DEG/KT/KT) (MB)    (MI)
HARRISON CRIB    1200            55  270/ 10/ 10   N/A
BURNHAM HARBOR   1300            56  240/  8/ 11   N/A
CALUMET HARBOR   1200            49  200/  4/  5 1015.1R
BURNS HARBOR     1202            47  200/  5/  8 1016.6R
MICHIGAN CITY    1200            45  160/  3/  4   N/A
$$

ABBREVIATIONS USED IN REMARKS
   TC - TEMPERATURE IN CELSIUS
  WCI - WIND CHILL INDEX
   HX - HEAT INDEX
  VSB - VISIBILITY
$$




USA.gov is the U.S. government's official web portal to all federal, state and local government web resources and services.